Location: Staunton
(38.1490°N, 79.0720°W)
Time: 14:47:56
(UTC-04:00)

ISS - Pass Details

Date: 24 July 2017
Orbit: 400 x 408 km, 51.6° (Epoch: 21 July)

Event Time Altitude Azimuth Distance (km) Brightness Sun altitude
Rises 22:39:07 0° 262° (W) 2,302 0.5 -20.6°
Reaches altitude 10° 22:41:29 10° 279° (W) 1,446 -0.4 -20.9°
Maximum altitude 22:44:05 22° 332° (NNW) 937 -1.2 -21.3°
Drops below altitude 10° 22:46:42 10° 26° (NNE) 1,450 -0.7 -21.6°
Sets 22:49:05 0° 42° (NE) 2,312 0.1 -21.9°
